Home > Weather > May Pen > Past weeks

Flag for Jamaica Weather for the Past 2 Weeks in May Pen, Jamaica

Now
79 °F

Partly sunny.


Feels Like: 82 °F
Forecast: N/A
Wind: 9 mph from Northwest

Location: Kingston / Norman Manley

Current Time: Feb 13, 2016 at 5:11:21 PM

Latest Report: Feb 13, 2016 at 3:00 PM


Visibility: N/A

Pressure: 29.95 "Hg

Humidity: 84%

Dew point: 73 °F

Location of May PenLocation

Historic Weather in May Pen — Graph

°F

May Pen Temperature Yesterday

Maximum temperature yesterday: 82 °F (at 4:00 PM)
Minimum temperature yesterday: 77 °F (at 1:00 AM)
Average temperature yesterday: 78 °F

High & Low Weather Summary for the Past Weeks

 TemperatureHumidityPressure
High90 °F (Feb 11, 1:00 PM)89% (Jan 30, 7:00 PM)30.09 "Hg (Jan 30, 7:00 PM)
Low75 °F (Jan 31, 6:00 AM)48% (Feb 5, 7:00 PM)29.86 "Hg (Feb 2, 3:00 PM)
Average80 °F73%29.98 "Hg
* Reported Jan 29 3:00 PM — Feb 13 3:00 PM, May Pen, Weather by CustomWeather, © 2016

Note: Actual official high and low records may vary slightly from our data, if they occured in-between our weather recording intervals... More about our weather records

Advertising

May Pen Weather History for the Previous 24 Hours

 ConditionsComfort  
Time TempWeatherWind HumidityBarometerVisibility
3:00 PM
Sat, Feb 13
79 °FPartly sunny.9 mph84%29.95 "HgN/A
2:00 PM79 °FSprinkles. Broken clouds.13 mph79%29.98 "HgN/A
1:00 PM86 °FScattered clouds.12 mph59%29.98 "HgN/A
12:00 PM84 °FScattered clouds.9 mph58%30.01 "HgN/A
11:00 AM84 °FPartly sunny.5 mph58%30.04 "HgN/A
10:00 AM82 °FScattered clouds.5 mph70%30.04 "HgN/A
9:00 AM81 °FScattered clouds.5 mph74%30.04 "HgN/A
8:00 AM77 °FPartly sunny.14 mph79%30.01 "HgN/A
7:00 AM77 °FPartly sunny.13 mph79%29.98 "HgN/A
6:00 AM77 °FPassing clouds.14 mph79%29.98 "HgN/A
5:00 AM77 °FPassing clouds.14 mph79%29.95 "HgN/A
4:00 AM77 °FPassing clouds.15 mph79%29.95 "HgN/A
3:00 AM77 °FPassing clouds.15 mph79%29.95 "HgN/A
2:00 AM77 °FPassing clouds.15 mph79%29.98 "HgN/A
1:00 AM77 °FPassing clouds.15 mph79%30.01 "HgN/A
12:00 AM77 °FPassing clouds.14 mph79%30.01 "HgN/A
11:00 PM
Fri, Feb 12
77 °FPassing clouds.15 mph79%30.01 "HgN/A
10:00 PM77 °FPassing clouds.14 mph79%30.01 "HgN/A
9:00 PM77 °FPassing clouds.13 mph79%30.01 "HgN/A
8:00 PM77 °FPassing clouds.9 mph79%30.01 "HgN/A
7:00 PM79 °FPassing clouds.10 mph74%30.01 "HgN/A
6:00 PM81 °FPartly sunny.8 mph70%30.01 "HgN/A
5:00 PM81 °FPartly sunny.9 mph58%29.98 "HgN/A
Weather by CustomWeather, © 2016

See weather overviewHow to use our weather pages